TimeMDT,TemperatureF,Dew PointF,Humidity,Sea Level PressureIn,VisibilityMPH,Wind Direction,Wind SpeedMPH,Gust SpeedMPH,PrecipitationIn,Events,Conditions,WindDirDegrees,DateUTC
12:15 AM,68.0,46.4,46,29.84,10.0,East,13.8,-,N/A,,Clear,100,2013-05-26 06:15:00
12:35 AM,68.0,46.4,46,29.83,10.0,ESE,15.0,-,N/A,,Clear,110,2013-05-26 06:35:00
12:55 AM,68.0,46.4,46,29.83,10.0,North,-9999.0,-,N/A,,Clear,0,2013-05-26 06:55:00
1:15 AM,66.2,48.2,52,29.83,10.0,East,13.8,-,N/A,,Clear,100,2013-05-26 07:15:00
1:35 AM,66.2,48.2,52,29.82,10.0,East,13.8,-,N/A,,Clear,100,2013-05-26 07:35:00
1:55 AM,66.2,48.2,52,29.82,10.0,ESE,11.5,-,N/A,,Clear,120,2013-05-26 07:55:00
2:15 AM,64.4,50.0,59,29.83,10.0,North,-9999.0,-,N/A,,Clear,0,2013-05-26 08:15:00
2:35 AM,59.0,48.2,67,29.86,10.0,West,11.5,-,N/A,,Clear,270,2013-05-26 08:35:00
2:55 AM,57.2,50.0,77,29.87,10.0,North,10.4,-,N/A,,Clear,350,2013-05-26 08:55:00
3:15 AM,57.2,50.0,77,29.87,10.0,North,8.1,-,N/A,,Clear,350,2013-05-26 09:15:00
3:35 AM,55.4,50.0,82,29.87,10.0,NW,6.9,-,N/A,,Clear,320,2013-05-26 09:35:00
3:55 AM,55.4,50.0,82,29.89,10.0,NW,13.8,19.6,N/A,,Clear,320,2013-05-26 09:55:00
4:15 AM,53.6,50.0,88,29.90,10.0,NNW,19.6,25.3,N/A,,Scattered Clouds,330,2013-05-26 10:15:00
4:35 AM,53.6,51.8,94,29.91,10.0,NNW,17.3,21.9,N/A,,Mostly Cloudy,330,2013-05-26 10:35:00
4:55 AM,53.6,51.8,94,29.91,10.0,NNW,15.0,21.9,N/A,,Overcast,330,2013-05-26 10:55:00
5:15 AM,53.6,50.0,88,29.91,10.0,NW,12.7,-,N/A,,Mostly Cloudy,320,2013-05-26 11:15:00
5:35 AM,53.6,50.0,88,29.90,10.0,NNW,13.8,19.6,N/A,,Clear,340,2013-05-26 11:35:00
5:55 AM,51.8,50.0,94,29.91,10.0,NNW,10.4,-,N/A,,Clear,330,2013-05-26 11:55:00
6:15 AM,53.6,50.0,88,29.90,10.0,North,13.8,-,N/A,,Clear,350,2013-05-26 12:15:00
6:35 AM,57.2,50.0,77,29.90,10.0,North,9.2,-,N/A,,Clear,10,2013-05-26 12:35:00
6:55 AM,62.6,50.0,63,29.90,10.0,North,10.4,-,N/A,,Clear,360,2013-05-26 12:55:00
7:15 AM,64.4,50.0,59,29.90,10.0,NNE,6.9,-,N/A,,Clear,20,2013-05-26 13:15:00
7:35 AM,66.2,50.0,56,29.91,10.0,SE,3.5,-,N/A,,Clear,140,2013-05-26 13:35:00
7:55 AM,66.2,50.0,56,29.92,10.0,South,9.2,-,N/A,,Clear,190,2013-05-26 13:55:00
8:15 AM,64.4,51.8,64,29.92,10.0,SSW,8.1,-,N/A,,Clear,200,2013-05-26 14:15:00
8:35 AM,68.0,51.8,56,29.92,10.0,South,8.1,-,N/A,,Clear,180,2013-05-26 14:35:00
8:55 AM,68.0,51.8,56,29.93,10.0,South,8.1,-,N/A,,Clear,190,2013-05-26 14:55:00
9:15 AM,69.8,50.0,49,29.93,10.0,SSE,10.4,16.1,N/A,,Clear,160,2013-05-26 15:15:00
9:35 AM,68.0,51.8,56,29.94,10.0,South,13.8,18.4,N/A,,Clear,170,2013-05-26 15:35:00
9:55 AM,69.8,51.8,53,29.94,10.0,South,13.8,18.4,N/A,,Clear,170,2013-05-26 15:55:00
10:15 AM,68.0,53.6,60,29.94,10.0,SSE,15.0,21.9,N/A,,Scattered Clouds,160,2013-05-26 16:15:00
10:35 AM,68.0,53.6,60,29.95,10.0,South,17.3,-,N/A,,Scattered Clouds,180,2013-05-26 16:35:00
10:55 AM,68.0,53.6,60,29.95,10.0,South,16.1,19.6,N/A,,Scattered Clouds,170,2013-05-26 16:55:00
11:15 AM,69.8,51.8,53,29.95,10.0,South,10.4,-,N/A,,Scattered Clouds,170,2013-05-26 17:15:00
11:35 AM,69.8,51.8,53,29.95,10.0,SSW,10.4,16.1,N/A,,Scattered Clouds,200,2013-05-26 17:35:00
11:55 AM,69.8,50.0,49,29.95,10.0,South,9.2,20.7,N/A,,Scattered Clouds,180,2013-05-26 17:55:00
12:15 PM,69.8,50.0,49,29.94,10.0,South,9.2,-,N/A,,Scattered Clouds,170,2013-05-26 18:15:00
12:35 PM,71.6,50.0,46,29.94,10.0,South,6.9,-,N/A,,Scattered Clouds,180,2013-05-26 18:35:00
12:55 PM,71.6,50.0,46,29.94,10.0,North,-9999.0,-,N/A,,Scattered Clouds,0,2013-05-26 18:55:00
1:15 PM,71.6,50.0,46,29.94,10.0,South,6.9,17.3,N/A,,Scattered Clouds,170,2013-05-26 19:15:00
1:35 PM,73.4,50.0,44,29.93,10.0,South,11.5,19.6,N/A,,Scattered Clouds,180,2013-05-26 19:35:00
1:55 PM,73.4,50.0,44,29.93,10.0,North,-9999.0,-,N/A,,Scattered Clouds,0,2013-05-26 19:55:00
2:15 PM,71.6,50.0,46,29.92,10.0,North,-9999.0,-,N/A,,Scattered Clouds,0,2013-05-26 20:15:00
2:35 PM,71.6,50.0,46,29.92,10.0,South,8.1,-,N/A,,Scattered Clouds,170,2013-05-26 20:35:00
2:55 PM,71.6,51.8,50,29.91,10.0,SSE,13.8,20.7,N/A,,Mostly Cloudy,160,2013-05-26 20:55:00
3:15 PM,71.6,51.8,50,29.91,10.0,SSE,11.5,16.1,N/A,,Mostly Cloudy,160,2013-05-26 21:15:00
3:35 PM,71.6,51.8,50,29.91,10.0,SSE,9.2,-,N/A,,Scattered Clouds,160,2013-05-26 21:35:00
3:55 PM,71.6,51.8,50,29.90,10.0,South,4.6,-,N/A,,Clear,170,2013-05-26 21:55:00
4:15 PM,71.6,51.8,50,29.90,10.0,SSE,4.6,-,N/A,,Clear,160,2013-05-26 22:15:00
4:35 PM,71.6,51.8,50,29.88,10.0,SSE,8.1,-,N/A,,Clear,160,2013-05-26 22:35:00
4:55 PM,71.6,51.8,50,29.87,10.0,South,6.9,-,N/A,,Clear,170,2013-05-26 22:55:00
5:15 PM,73.4,51.8,47,29.87,10.0,SSE,10.4,-,N/A,,Clear,150,2013-05-26 23:15:00
5:35 PM,73.4,51.8,47,29.86,10.0,SSE,4.6,-,N/A,,Clear,160,2013-05-26 23:35:00
5:55 PM,73.4,51.8,47,29.85,10.0,SSE,6.9,-,N/A,,Clear,150,2013-05-26 23:55:00
6:15 PM,73.4,51.8,47,29.84,10.0,SSE,9.2,-,N/A,,Clear,160,2013-05-27 00:15:00
6:35 PM,71.6,51.8,50,29.84,10.0,SSE,8.1,-,N/A,,Clear,160,2013-05-27 00:35:00
6:55 PM,69.8,51.8,53,29.84,10.0,South,9.2,-,N/A,,Clear,170,2013-05-27 00:55:00
7:15 PM,68.0,51.8,56,29.84,10.0,South,16.1,-,N/A,,Clear,170,2013-05-27 01:15:00
7:35 PM,68.0,51.8,56,29.85,10.0,SSE,18.4,24.2,N/A,,Clear,160,2013-05-27 01:35:00
7:55 PM,64.4,53.6,68,29.86,10.0,SSE,21.9,-,N/A,,Clear,150,2013-05-27 01:55:00
8:15 PM,64.4,51.8,64,29.87,10.0,SE,21.9,31.1,N/A,,Clear,130,2013-05-27 02:15:00
8:35 PM,64.4,51.8,64,29.85,10.0,ESE,16.1,21.9,N/A,,Clear,110,2013-05-27 02:35:00
8:55 PM,64.4,51.8,64,29.85,10.0,ESE,15.0,-,N/A,,Clear,110,2013-05-27 02:55:00
9:15 PM,62.6,51.8,68,29.85,10.0,East,13.8,20.7,N/A,,Clear,90,2013-05-27 03:15:00
9:35 PM,64.4,51.8,64,29.83,10.0,East,17.3,23.0,N/A,,Clear,100,2013-05-27 03:35:00
9:55 PM,64.4,51.8,64,29.84,10.0,ESE,17.3,21.9,N/A,,Clear,110,2013-05-27 03:55:00
10:15 PM,64.4,53.6,68,29.83,10.0,East,13.8,19.6,N/A,,Clear,100,2013-05-27 04:15:00
10:35 PM,64.4,53.6,68,29.82,10.0,ESE,13.8,-,N/A,,Clear,110,2013-05-27 04:35:00
10:55 PM,64.4,53.6,68,29.83,10.0,North,-9999.0,-,N/A,,Clear,0,2013-05-27 04:55:00
11:15 PM,62.6,53.6,72,29.84,10.0,SSE,8.1,-,N/A,,Clear,150,2013-05-27 05:15:00
11:35 PM,60.8,53.6,77,29.89,10.0,West,15.0,19.6,N/A,,Clear,280,2013-05-27 05:35:00
11:55 PM,60.8,53.6,77,29.91,10.0,NW,17.3,26.5,N/A,,Mostly Cloudy,320,2013-05-27 05:55:00